This is the latest recevied weather packets stored in our database for station/object SA7AHC. If no packets are shown the sender has not sent any weather packets the latest 10 day(s).
| Time | Temp. | Humidity | Pressure | Rain* | Wind** | Luminosity | Snow |
|---|---|---|---|---|---|---|---|
| 1778056507 | 11.11° C | 42% | 1013.3 hPa | 0 mm | - | 519 W/m² | - |
| 1778055906 | 10.56° C | 44% | 1013.2 hPa | 0 mm | - | 531 W/m² | - |
| 1778055306 | 10.56° C | 43% | 1013 hPa | 0 mm | - | 520 W/m² | - |
| 1778054706 | 10° C | 42% | 1013.1 hPa | 0 mm | - | 599 W/m² | - |
| 1778054107 | 10° C | 44% | 1013.1 hPa | 0 mm | - | 348 W/m² | - |
| 1778053506 | 10° C | 44% | 1013.1 hPa | 0 mm | - | 425 W/m² | - |
| 1778052907 | 9.44° C | 42% | 1013.1 hPa | 0 mm | - | 396 W/m² | - |
| 1778052301 | 8.89° C | 42% | 1013.1 hPa | 0 mm | - | 554 W/m² | - |
| 1778051698 | 8.89° C | 44% | 1013 hPa | 0 mm | - | 276 W/m² | - |
| 1778051096 | 8.89° C | 43% | 1013 hPa | 0 mm | - | 457 W/m² | - |
| 1778050493 | 8.33° C | 42% | 1012.9 hPa | 0 mm | - | 422 W/m² | - |
| 1778049896 | 8.33° C | 43% | 1012.8 hPa | 0 mm | - | 338 W/m² | - |
| 1778049289 | 7.78° C | 43% | 1012.9 hPa | 0 mm | - | 350 W/m² | - |
| 1778048690 | 7.22° C | 45% | 1012.9 hPa | 0 mm | - | 323 W/m² | - |
| 1778048090 | 6.67° C | 44% | 1012.7 hPa | 0 mm | - | 144 W/m² | - |
| 1778047494 | 6.67° C | 43% | 1012.8 hPa | 0 mm | - | 86 W/m² | - |
| 1778046888 | 6.67° C | 45% | 1012.7 hPa | 0 mm | - | 160 W/m² | - |
| 1778046294 | 6.67° C | 47% | 1012.5 hPa | 0 mm | - | 51 W/m² | - |
| 1778045684 | 6.11° C | 51% | 1012.5 hPa | 0 mm | - | 47 W/m² | - |
| 1778045084 | 5.56° C | 52% | 1012.5 hPa | 0 mm | - | 44 W/m² | - |
| 1778044485 | 5.56° C | 52% | 1012.3 hPa | 0 mm | - | 46 W/m² | - |
| 1778043878 | 5° C | 56% | 1012.3 hPa | 0 mm | - | 37 W/m² | - |
| 1778043275 | 4.44° C | 59% | 1012.3 hPa | 0 mm | - | 35 W/m² | - |
| 1778042675 | 4.44° C | 63% | 1012.2 hPa | 0 mm | - | 30 W/m² | - |
| 1778042076 | 3.89° C | 65% | 1012.2 hPa | 0 mm | - | 26 W/m² | - |
* Rain latest hour (hover to see other rain measurements)
** Current wind speed in m/s (hover to see current wind gust speed)